Maßnahmen aufgrund der Corona-Krise

 

Liebe Mitglieder, liebe Besucher,


wir haben den Flugbetrieb unter Auflagen wieder aufgenommen. Auch Modellflug kann wieder stattfinden.

  • Gastflüge sind leider derzeit noch nicht wieder möglich.
  • Über die Eröffnung der Gaststätte wird voraussichtlich Mitte Juni entschieden.

 

Wir bitten alle Mitglieder und Besucher um Verständnis.

Sofern sich Änderungen ergeben, werden wir sofort informieren.

Wir wünschen Allen in dieser schwierigen Zeit vor allem Gesundheit.

Der Vorstand
AeroClub Göppingen-Salach

 

 

 

 

  • 1

WebCam

  
Kamera Halle
Kamera Vorfeld

GPS Triangle WM Sports Class

AeroClub Göppingen-Salach e.V.
Ausrichter der Modellflug
GPS Triangle-WM 2020

 

Aufgrund der aktuellen Corona Situation ist die WM auf den 15.8.-20.8.2021 verschoben
Wetter EDDS

METAR

EDDS 052220Z VRB04KT 9999 -SHRA FEW016 SCT028 SCT037TCU 12/10 Q1003 =
EDDS 051700Z 0518/0618 21015G25KT 9999 SCT025 BKN045 PROB40 TEMPO 0518/0522 24020G30KT SHRA BKN020TCU BECMG 0519/0522 21008KT TEMPO 0602/0611 RA BECMG 0608/0611 25015G25KT BECMG 0613/0616 26007KT


TAF

EDDS 051700Z 0518/0618 21015G25KT 9999 SCT025 BKN045 PROB40 TEMPO 0518/0522 24020G30KT SHRA BKN020TCU BECMG 0519/0522 21008KT TEMPO 0602/0611 RA BECMG 0608/0611 25015G25KT BECMG 0613/0616 26007KT =


SR/SS

03:20 / 19:20 UTC
(EDSO 06-06-2020)